Weather in Petrovirivka

Ukraine / Odesa District     47°13′28″N   30°20′16″E
temp.,
°C
wind,
m/s
gust,
m/s
humid.,
%
clouds,
%
prec.,
mm/h
press.,
hPa
HPBL,
m
22 april, thu
thu2200:00+10ssw226584 0.0 101717
03:00+10ssw3677100 0.0 1018172
06:00+9ssw34789 0.0 101888
09:00+13s56635 0.0 1019482
12:00+17s564432 0.0 10192109
15:00+17s5645100 0.0 10181967
18:00+14se8116780 0.3 1018597
21:00+12sse6117716 0.3 1018252
23 april, fri
fri2300:00+11s5137384 0.0 1017319
03:00+9s5127898 0.0 1017269
06:00+8ssw4108999 0.1 1016198
09:00+12w3474100 0.1 1017458
12:00+14wnw3364100 0.0 10171079
15:00+12nw3474100 2.7 1016477
18:00+7nnw7986100 5.3 1018880
21:00+6nnw358812 6.3 1020395
24 april, sat
sat2400:00+5w35915 0.0 1020118
03:00+4wnw38890 0.0 1020150
06:00+3wnw35820 0.0 102087
09:00+8wnw8106477 0.0 1021946
12:00+8nw8115098 0.0 10231600
15:00+11nw810335 0.0 10222324
18:00+10nw710395 0.0 10222406
21:00+6nw22520 0.0 102419
25 april, sun
sun2500:00+5w22555 0.0 102410
03:00+4wsw11555 0.0 102410
06:00+3ssw225730 0.0 102310
09:00+10ssw45435 0.0 1022428
12:00+13ssw674092 0.0 10211814
15:00+12sw7959100 0.1 10191549
18:00+11s567027 1.4 1018324
21:00+8sw5885100 2.6 1020416
26 april, mon
mon2600:00+6nnw7885100 0.4 1021695
03:00+6nw3780100 0.6 1021527
06:00+2nw48780 0.0 1021156
09:00+7nw46520 0.0 1021825
12:00+10wnw573944 0.0 10212157
15:00+12wnw7934100 0.0 10192620
18:00+11nw684266 0.0 10192140
21:00+8nnw345298 0.0 102081